STARLINK-5070, 55654

Orbit data source: Space-Track

STARLINK-5070, 55654 is a payload satellite owned by SpaceX/Seattle (US) in LEO that was launched on Fri, 17 Feb 2023 UTC via an FALCON 9 launch vehicle from the Air Force Western Test Range (AFWTR). Payload-class satellites include a variety of spacecraft equipped with specific instruments for various scientific and technological missions. These include communications satellites like Starlink; space stations such as the ISS; scientific satellites like the Hubble; Earth observation satellites from companies like Planet Labs, Umbra, and HawkEye 360; GPS; miniature CubeSats for education and research; and military/defense satellites.

Loading next visibility...
Identifier
55654, 2023-021AC
Orbit
LEO
Country
Flag of USUS
Related business
Manufacturer
SpaceX/Seattle
Mission
Operational Commercial Communications
Bus & Motor
STARLINK, Unknown motor
Mass
305 kg wet, ~290 kg dry
Launch date (UTC)
2023-02-17 (3 years ago)
Launch vehicle
FALCON 9
Launch site
Air Force Western Test Range (AFWTR)
Object type
Payload
Rocket body
Debris
Shape & HBR
Box + 1 Pan, 10.1 m
Radar Cross Section
13.562 m², Large (>1 m²)

Expand to show TLE details & history
Last TLE update: 2 days ago

TLE from 2 days ago
0 STARLINK-5070
1 55654U 23021AC  26171.40830454  .00000381  00000-0  39758-4 0  9996
2 55654  69.9997 285.6262 0003161 270.5043  89.5754 14.98328305184171
Epoch: 2026-06-20T09:47Z
TLE epoch observation values (Epoch: 2026-06-20T09:47:57.512Z)
Latitude
Longitude
-129.98679°
Altitude
574.469 km
Speed
7.574 km/s
True Right ascension
19h 02m 30s
True Declination
0° 00' 00"
Sunlit
Object was in full shadow at epoch
Visualization orbit readout
Latitude
Unknown
Longitude
Unknown
Altitude
Unknown
Speed
Unknown
Apparent Right ascension
Unknown
Apparent Declination
Unknown
Sunlit
N/A
Visualization observer readout
Local Sidereal Time
21:43:33
Azimuth
Unknown
Elevation
Unknown
Doppler factor
Unknown
Orbital elements
Apogee altitude
572.206 km
Perigee altitude
567.813 km
Semi-major axis
6,948.146 km
Eccentricity
0.00032
Inclination
69.9997°
RAAN
285.6262°
Arg. of periapsis
270.5043°
True anomaly
89.61162°
Mean anomaly
89.5754°
Eccentric anomaly
89.59351°
Mean motion
3.74748 °/min
Orbital period
96.06 mins
BSTAR
0.000039758
Loading maneuver chart data...
Computing Atmospheric mass density...

Documentation

Showing up to 5 results
|